UAE787 OMDB-DGAA

Flight info

Callsign UAE787
Flight time N/A
Altitude 38000
Route ANVIX R401 GIDIS G783 UKRAG L710 KUKDI B400 RIGAM B404 DEMGO UB404 HARGA UW885 DWA UT667 GWZ UT139 BRO DCT KAFIA UA410 IPISU UQ200 OPOLA UQ584 KEMOX UL433 IKROP DCT POLTO UL433 LM L433 EREKA EREKA1B
Aircraft B77W/H-SDE1E2E3FGHIJ2J3J4J5M1RWXY/LB1D1

Departure

Time 2026-04-30 21:10
Airport Dubai International Airport (OMDB)

Arrival

Time N/A
Airport Kotoka International Airport (DGAA)
Time Latitude Longitude Altitude Speed Heading
2026-04-30 20:01 25.24920 55.35830 47 ft 0 kts 31°
2026-04-30 20:42 25.24919 55.35830 48 ft 1 kts 31°
2026-04-30 20:42 25.24892 55.35814 48 ft 3 kts 18°
2026-04-30 20:43 25.24872 55.35810 48 ft 3 kts
2026-04-30 20:43 25.24852 55.35812 48 ft 3 kts 342°
2026-04-30 20:43 25.24838 55.35818 48 ft 0 kts 332°
2026-04-30 20:47 25.24843 55.35816 48 ft 2 kts 330°
2026-04-30 20:47 25.24847 55.35807 48 ft 2 kts 292°
2026-04-30 20:48 25.24864 55.35764 48 ft 5 kts 297°
2026-04-30 20:48 25.24878 55.35740 48 ft 0 kts 304°
2026-04-30 20:49 25.24882 55.35733 48 ft 2 kts 304°
2026-04-30 20:50 25.24929 55.35655 48 ft 8 kts 304°
2026-04-30 20:50 25.24962 55.35600 48 ft 9 kts 304°
2026-04-30 20:50 25.24988 55.35557 48 ft 11 kts 304°
2026-04-30 20:50 25.25029 55.35485 48 ft 12 kts 300°
2026-04-30 20:51 25.25072 55.35404 48 ft 13 kts 300°
2026-04-30 20:51 25.25173 55.35226 48 ft 14 kts 312°
2026-04-30 20:51 25.25238 55.35138 48 ft 15 kts 301°
2026-04-30 20:52 25.25286 55.35051 48 ft 11 kts 299°
2026-04-30 20:52 25.25318 55.34984 48 ft 8 kts 300°
2026-04-30 20:52 25.25373 55.34908 48 ft 7 kts 322°
2026-04-30 20:53 25.25426 55.34889 48 ft 9 kts 354°
2026-04-30 20:53 25.25476 55.34903 48 ft 0 kts 35°
2026-04-30 20:53 25.25483 55.34909 48 ft 3 kts 35°
2026-04-30 20:54 25.25544 55.34955 48 ft 6 kts 32°
2026-04-30 20:54 25.25567 55.34971 48 ft 5 kts 31°
2026-04-30 20:54 25.25607 55.34998 48 ft 8 kts 31°
2026-04-30 20:55 25.25712 55.35068 48 ft 9 kts 30°
2026-04-30 20:55 25.25744 55.35093 48 ft 3 kts 57°
2026-04-30 20:55 25.25742 55.35122 48 ft 4 kts 112°
2026-04-30 20:56 25.25721 55.35165 48 ft 2 kts 104°
2026-04-30 20:56 25.25722 55.35182 48 ft 3 kts 76°
2026-04-30 20:56 25.25739 55.35196 48 ft 0 kts 33°
2026-04-30 20:57 25.25749 55.35204 48 ft 3 kts 33°
2026-04-30 20:57 25.25776 55.35223 48 ft 6 kts 33°
2026-04-30 20:57 25.25819 55.35253 48 ft 9 kts 31°
2026-04-30 20:58 25.25947 55.35338 48 ft 12 kts 31°
2026-04-30 20:58 25.26007 55.35379 48 ft 10 kts 31°
2026-04-30 20:58 25.26039 55.35413 48 ft 5 kts 81°
2026-04-30 20:58 25.26029 55.35460 48 ft 7 kts 118°
2026-04-30 20:59 25.25965 55.35573 48 ft 10 kts 122°
2026-04-30 20:59 25.25924 55.35645 48 ft 12 kts 122°
2026-04-30 21:00 25.25831 55.35811 48 ft 14 kts 122°
2026-04-30 21:00 25.25723 55.36002 48 ft 15 kts 122°
2026-04-30 21:01 25.25607 55.36209 48 ft 16 kts 121°
2026-04-30 21:01 25.25548 55.36319 48 ft 17 kts 121°
2026-04-30 21:01 25.25426 55.36544 48 ft 17 kts 121°
2026-04-30 21:02 25.25362 55.36659 48 ft 18 kts 121°
2026-04-30 21:02 25.25298 55.36775 48 ft 18 kts 122°
2026-04-30 21:02 25.25232 55.36892 48 ft 18 kts 122°
2026-04-30 21:02 25.25166 55.37009 48 ft 18 kts 122°
2026-04-30 21:03 25.25100 55.37129 48 ft 18 kts 121°
2026-04-30 21:03 25.25035 55.37248 48 ft 18 kts 121°
2026-04-30 21:03 25.24969 55.37369 48 ft 18 kts 121°
2026-04-30 21:03 25.24902 55.37490 48 ft 18 kts 121°
2026-04-30 21:04 25.24834 55.37612 48 ft 19 kts 121°
2026-04-30 21:04 25.24784 55.37703 48 ft 8 kts 121°
2026-04-30 21:04 25.24726 55.37808 48 ft 9 kts 121°
2026-04-30 21:05 25.24691 55.37873 48 ft 11 kts 121°
2026-04-30 21:05 25.24669 55.37918 48 ft 6 kts 106°
2026-04-30 21:05 25.24668 55.37949 48 ft 4 kts 83°
2026-04-30 21:05 25.24688 55.37969 48 ft 5 kts 28°
2026-04-30 21:06 25.24728 55.37994 48 ft 8 kts 30°
2026-04-30 21:06 25.24771 55.38022 48 ft 8 kts 30°
2026-04-30 21:06 25.24810 55.38023 48 ft 6 kts 330°
2026-04-30 21:06 25.24827 55.37996 48 ft 4 kts 300°
2026-04-30 21:07 25.24831 55.37989 48 ft 0 kts 301°
2026-04-30 21:08 25.24832 55.37987 48 ft 3 kts 301°
2026-04-30 21:08 25.24880 55.37896 48 ft 34 kts 300°
2026-04-30 21:08 25.25105 55.37477 48 ft 94 kts 300°
2026-04-30 21:08 25.25555 55.36666 48 ft 150 kts 301°
2026-04-30 21:09 25.26178 55.35539 64 ft 196 kts 301°
2026-04-30 21:09 25.26424 55.35093 162 ft 202 kts 300°
2026-04-30 21:10 25.29495 55.28942 2408 ft 188 kts 268°
2026-04-30 21:10 25.29138 55.27558 2583 ft 191 kts 243°
2026-04-30 21:10 25.28418 55.26295 2750 ft 199 kts 240°
2026-04-30 21:11 25.27706 55.24945 2886 ft 207 kts 244°
2026-04-30 21:11 25.27039 55.23524 3082 ft 215 kts 246°
2026-04-30 21:11 25.26392 55.22044 3651 ft 208 kts 248°
2026-04-30 21:11 25.25781 55.20602 4187 ft 208 kts 248°
2026-04-30 21:12 25.25150 55.19111 4485 ft 220 kts 247°
2026-04-30 21:12 25.24399 55.17615 4845 ft 229 kts 233°
2026-04-30 21:12 25.23117 55.16532 5083 ft 244 kts 204°
2026-04-30 21:12 25.21427 55.16145 5474 ft 254 kts 183°
2026-04-30 21:13 25.19679 55.16579 5879 ft 263 kts 154°
2026-04-30 21:13 25.18241 55.17864 6301 ft 274 kts 133°
2026-04-30 21:13 25.17135 55.19633 6669 ft 285 kts 120°
2026-04-30 21:13 25.16206 55.21615 7091 ft 294 kts 117°
2026-04-30 21:14 25.15292 55.23661 7594 ft 299 kts 117°
2026-04-30 21:14 25.14663 55.25027 7946 ft 302 kts 118°
2026-04-30 21:14 25.13380 55.27782 8648 ft 308 kts 119°
2026-04-30 21:14 25.12700 55.29197 9018 ft 309 kts 120°
2026-04-30 21:15 25.11349 55.31990 9757 ft 313 kts 120°
2026-04-30 21:15 25.10330 55.34125 10315 ft 316 kts 118°
2026-04-30 21:15 25.09396 55.36341 10947 ft 319 kts 116°
2026-04-30 21:15 25.08504 55.38588 11597 ft 321 kts 116°
2026-04-30 21:16 25.07614 55.40820 12236 ft 323 kts 116°
2026-04-30 21:16 25.06710 55.43127 12678 ft 335 kts 115°
2026-04-30 21:16 25.05778 55.45563 12936 ft 352 kts 115°
2026-04-30 21:16 25.04796 55.48117 13154 ft 369 kts 115°
2026-04-30 21:17 25.03774 55.50766 13364 ft 387 kts 115°
2026-04-30 21:17 25.02685 55.53579 13656 ft 400 kts 116°
2026-04-30 21:17 25.01483 55.56335 14075 ft 408 kts 120°
2026-04-30 21:17 25.00075 55.59081 14578 ft 414 kts 123°
2026-04-30 21:18 24.98559 55.61812 15101 ft 419 kts 124°
2026-04-30 21:18 24.97031 55.64568 15616 ft 424 kts 123°
2026-04-30 21:18 24.95509 55.67378 16157 ft 428 kts 123°
2026-04-30 21:18 24.93963 55.70207 16680 ft 432 kts 124°
2026-04-30 21:19 24.92274 55.72960 17189 ft 435 kts 128°
2026-04-30 21:19 24.91692 55.73833 17343 ft 436 kts 129°